SR - Orbit

View from above orbital plane
View from above orbital plane
View from above satellite
View from above satellite

Ground track
Ground track

The orbit data is extracted from the following two-line orbital elements,

1 00046U 60007B   13144.14488754  .00000501  00000-0  12388-3 0  3712
2 00046 066.6904 174.1165 0223975 254.3866 103.2424 14.47009126765211
Epoch (UTC): 24 May 2013 03:28:38
Eccentricity: 0.0223975
inclination: 66.6904°
perigee height: 576 km
apogee height: 895 km
right ascension of ascending node: 174.1165°
argument of perigee: 254.3866°
revolutions per day: 14.47009126
mean anomaly at epoch: 103.2424°
orbit number at epoch: 76521

The dashed part of the orbit path shows where the satellite is in the earth's shadow,  

Developed and maintained by Chris Peat, Heavens-Above GmbH. Please read the updated FAQ before sending e-mail. Imprint. DLR